{"data":{"norad_id":40286,"intl_designator":"2014-066A","name":"SJ-11-08","alt_names":[],"object_type":"PAYLOAD","status":"ACTIVE","operator":null,"country":"PRC","launch_date":"2014-10-27","launch_site_code":"JSC","launch_vehicle":null,"mission":null,"orbit_class":"UNKNOWN","rcs_meters":2.1591,"size_class":null,"mass_kg":null,"dimensions":null,"purposes":[],"wikipedia_slug":null,"has_3d_model":false,"image_url":null,"decayed_at":null,"tle_current":{"epoch":"2026-09-20T04:20:24.171648Z","epoch_age_seconds":68798,"freshness":"FRESH","line1":"1 40286U 14066A   26263.18083532  .00000351  00000+0  72894-4 0  9998","line2":"2 40286  98.3662  49.7420 0010909 297.3544  62.6549 14.66262189635130","mean_motion":14.66262189,"eccentricity":0.0010909,"inclination_deg":98.3662,"raan_deg":49.742,"arg_perigee_deg":297.3544,"mean_anomaly_deg":62.6549,"bstar":7.2894e-5,"rev_number":63513,"period_min":98.208902255202,"perigee_km":665.33383394469,"apogee_km":680.71806126377,"semimajor_km":7051.1629476042,"source":"CELESTRAK","updated_at":"2026-09-20T09:00:14.026878Z"}}}